Flight Track Log - Related Links

Times and Time Zones

All times are in EDT time to prevent confusion due to time zone crossing. See the N240ER flight status page for this flight to view local times or setup timezone preferences in your user account.

Time Position Orientation Groundspeed Altitude Reporting Facility
EDT Latitude Longitude Course Direction KTS MPH feet Rate Location/Type
Tue 05:02:03 PM 40.0497 -88.1639 64° Northeast 158 182 17,000  Level Chicago Center
Tue 05:04:07 PM 40.1028 -88.0528 58° Northeast 178 205 6,700 -2,903 Descending Chicago Center
Tue 05:05:09 PM 40.1311 -87.9922 59° Northeast 189 217 8,000 1,161 Climbing Chicago Center
Tue 05:06:00 PM 40.2097 -87.8640 57° Northeast  Level FlightAware Approximate
Tue 05:06:11 PM 40.1617 -87.9261 59° Northeast 205 236 9,100  Level Chicago Center
Tue 05:07:00 PM 40.2406 -87.7967 64° Northeast  Level FlightAware Approximate
Tue 05:07:14 PM 40.1981 -87.8483 58° Northeast 220 253 10,500  Level Chicago Center
Tue 05:08:16 PM 40.2300 -87.7811 58° Northeast 219 252 11,700 1,161 Climbing Chicago Center
Tue 05:09:18 PM 40.2614 -87.7128 59° Northeast 221 254 12,900 1,113 Climbing Chicago Center
Tue 05:10:20 PM 40.2928 -87.6450 59° Northeast 219 252 14,000 1,065 Climbing Chicago Center
Tue 05:11:22 PM 40.3319 -87.5606 59° Northeast 225 259 15,100 1,016 Climbing Chicago Center
Tue 05:12:24 PM 40.3650 -87.4869 59° Northeast 233 268 16,100 919 Climbing Chicago Center
Tue 05:13:26 PM 40.3975 -87.4178 58° Northeast 237 273 17,000 435 Climbing Chicago Center
Tue 05:14:28 PM 40.4353 -87.3344 59° Northeast 258 297 17,000  Level Chicago Center
Tue 05:15:30 PM 40.4786 -87.2414 59° Northeast 284 327 17,000  Level Chicago Center
Tue 05:16:32 PM 40.5256 -87.1369 59° Northeast 280 322 17,000  Level Chicago Center
Tue 05:17:35 PM 40.5667 -87.0589 55° Northeast 273 314 17,000 432 Level Chicago Center
Tue 05:18:37 PM 40.6258 -87.0086 33° Northeast 249 287 17,900 871 Climbing Chicago Center
Tue 05:19:39 PM 40.6797 -86.9619 33° Northeast 238 274 18,800 532 Climbing Chicago Center
Tue 05:20:41 PM 40.7372 -86.9119 33° Northeast 246 283 19,000 97 Climbing Chicago Center
Tue 05:21:43 PM 40.8131 -86.8428 35° Northeast 274 315 19,000  Level Chicago Center
Tue 05:22:46 PM 40.8778 -86.7869 33° Northeast 279 321 19,000  Level Chicago Center
Tue 05:23:48 PM 40.9414 -86.7294 34° Northeast 280 322 19,000  Level Chicago Center
Tue 05:24:50 PM 41.0128 -86.6664 34° Northeast 281 323 19,000  Level Chicago Center
Tue 05:25:52 PM 41.0778 -86.6078 34° Northeast 282 325 19,000  Level Chicago Center
Tue 05:26:54 PM 41.1411 -86.5508 34° Northeast 278 320 19,000  Level Chicago Center
Tue 05:27:56 PM 41.2056 -86.4942 33° Northeast 277 319 19,000  Level Chicago Center
Tue 05:28:58 PM 41.2728 -86.4497 26° Northeast 268 308 19,000 -532 Level Chicago Center
Tue 05:30:00 PM 41.3414 -86.4111 23° Northeast 267 307 17,900 -1,403 Descending Chicago Center
Tue 05:31:02 PM 41.4244 -86.3692 21° North 266 306 16,100 -1,597 Descending Chicago Center
Tue 05:32:04 PM 41.4928 -86.3414 17° North 258 297 14,600 -1,452 Descending Chicago Center
Tue 05:33:06 PM 41.5611 -86.3111 18° North 258 297 13,100 -768 Descending Chicago Center
Tue 05:34:09 PM 41.6264 -86.2833 18° North 248 285 13,000 -48 Descending Chicago Center
Tue 05:35:11 PM 41.6828 -86.2364 32° Northeast 249 287 13,000  Level Chicago Center
Tue 05:36:13 PM 41.7361 -86.1708 43° Northeast 259 298 13,000 -194 Level Chicago Center
Tue 05:37:15 PM 41.8017 -86.0908 42° Northeast 265 305 12,600 -532 Descending Chicago Center
Tue 05:38:17 PM 41.8544 -86.0258 43° Northeast 260 299 11,900 -677 Descending Chicago Center
Tue 05:39:19 PM 41.9050 -85.9636 42° Northeast 249 287 11,200 -435 Descending Chicago Center
Tue 05:40:21 PM 41.9569 -85.8992 43° Northeast 253 291 11,000 -145 Descending Chicago Center
Tue 05:41:23 PM 42.0150 -85.8275 43° Northeast 252 290 10,900 -532 Descending Chicago Center
Tue 05:42:25 PM 42.0675 -85.7606 43° Northeast 260 299 9,900 -919 Descending Chicago Center
Tue 05:43:27 PM 42.1222 -85.7253 26° Northeast 249 287 9,000 -1,113 Descending Chicago Center
Tue 05:44:29 PM 42.1958 -85.6833 23° Northeast 241 277 7,600 -1,258 Descending Chicago Center
Tue 05:45:31 PM 42.2611 -85.6575 16° North 246 283 6,400 -1,258 Descending Chicago Center
Tue 05:46:33 PM 42.3186 -85.6625 356° North 234 269 5,000 -1,645 Descending Chicago Center
Tue 05:47:35 PM 42.3864 -85.6336 17° North 215 247 3,000 -968 Descending Chicago Center
Tue 05:48:37 PM 42.3736 -85.5736 106° East 185 213 3,000 -48 Level Chicago Center
Tue 05:49:39 PM 42.3336 -85.5714 178° South 148 170 2,900 -336 Descending Chicago Center
Tue 05:50:42 PM 42.3069 -85.5647 170° South 105 121 2,300 -528 Descending Chicago Center
Tue 05:51:44 PM 42.2847 -85.5600 171° South 79 91 1,800 -242 Descending Chicago Center
Tue 05:52:46 PM 42.2647 -85.5561 172° South 78 90 1,800  Level Chicago Center

Login

Don't have an account? Register now (free) for customized features, flight alerts, and more!